Language: 


Des rapports , des résumés tant et plus, au choix de chacun....


Données Historiques de Météogheer
Journalier Rapport pour Décembre 15, 2017 Unitée:  Métrique    Impériale   Les deux
Suivant Jour »
Journalier Hebdomadaire Mensuel Annuel Sur mesure
  Max: Min: Moyenne:
Température: 5.0 °C 1.0 °C 2.9 °C
Point de rosée: 5.0 °C 1.0 °C 2.9 °C
Humidité: 98% 98% 98%
Vent: 10.8km/h 0.0km/h 3.4km/h
Rafales: 16.6km/h - -
Vent- - WSW
Pression: 1003.9 hPa 989.1 hPa -
Pluie: 2.5 mm    
Historical Graphs
 
 
Données tabulaires pour Décembre 15, 2017
Heure Température Point de rosée Pression Vent Vent Rafales Humidité Pluie Taux (Horaire) Conditions
00:04 1.1 °C 1.0 °C 989.1 hPa Calm   5.0 km/h 98% 0.0 mm
00:09 1.2 °C 1.0 °C 989.1 hPa Calm   6.9 km/h 98% 0.0 mm
00:14 1.3 °C 1.0 °C 989.1 hPa Calm   6.9 km/h 98% 0.0 mm
00:19 1.4 °C 1.0 °C 989.1 hPa SW 8.7 km/h 10.1 km/h 98% 0.0 mm
00:24 1.5 °C 2.0 °C 989.1 hPa SW 10.1 km/h 10.1 km/h 98% 0.0 mm
00:30 1.6 °C 2.0 °C 990.1 hPa Calm   10.1 km/h 98% 0.0 mm
00:35 1.7 °C 2.0 °C 990.1 hPa SSW 8.7 km/h 10.5 km/h 98% 0.0 mm
00:40 1.8 °C 2.0 °C 990.1 hPa SSW 6.4 km/h 10.5 km/h 98% 0.0 mm
00:45 1.9 °C 2.0 °C 989.1 hPa Calm   12.2 km/h 98% 0.0 mm
00:50 1.9 °C 2.0 °C 989.1 hPa SSW 9.3 km/h 12.2 km/h 98% 0.0 mm
00:55 2.0 °C 2.0 °C 989.1 hPa SW 8.7 km/h 12.2 km/h 98% 0.0 mm
01:00 2.0 °C 2.0 °C 990.1 hPa SW 3.5 km/h 12.2 km/h 98% 0.0 mm
01:05 2.1 °C 2.0 °C 990.1 hPa SSW 9.0 km/h 11.9 km/h 98% 0.0 mm
01:06 2.1 °C 2.0 °C 990.1 hPa Calm   11.9 km/h 98% 0.0 mm
01:12 2.1 °C 2.0 °C 989.1 hPa SW 5.8 km/h 9.0 km/h 98% 0.0 mm
01:17 2.1 °C 2.0 °C 989.1 hPa Calm   10.1 km/h 98% 0.0 mm
01:22 2.2 °C 2.0 °C 989.1 hPa Calm   10.8 km/h 98% 0.0 mm
01:27 2.3 °C 3.0 °C 989.1 hPa SW 9.0 km/h 11.6 km/h 98% 0.0 mm
01:32 2.4 °C 3.0 °C 989.1 hPa WSW 8.7 km/h 11.6 km/h 98% 0.0 mm
01:37 2.5 °C 3.0 °C 989.1 hPa SW 6.9 km/h 13.0 km/h 98% 0.0 mm
01:42 2.6 °C 3.0 °C 990.1 hPa SW 7.9 km/h 13.0 km/h 98% 0.0 mm
01:47 2.7 °C 3.0 °C 990.1 hPa WSW 8.7 km/h 15.8 km/h 98% 0.3 mm
01:52 2.7 °C 3.0 °C 990.1 hPa WSW 9.3 km/h 15.8 km/h 98% 0.3 mm
01:57 2.7 °C 3.0 °C 990.1 hPa WSW 9.7 km/h 12.2 km/h 98% 0.3 mm
02:02 2.8 °C 3.0 °C 990.1 hPa SW 10.1 km/h 10.5 km/h 98% 0.3 mm
02:07 2.8 °C 3.0 °C 990.1 hPa WSW 8.7 km/h 10.5 km/h 98% 0.3 mm
02:12 2.9 °C 3.0 °C 990.1 hPa SW 8.7 km/h 10.5 km/h 98% 0.3 mm
02:18 3.0 °C 3.0 °C 990.1 hPa WSW 3.2 km/h 9.3 km/h 98% 0.8 mm
02:23 3.0 °C 3.0 °C 990.1 hPa SW 6.4 km/h 9.3 km/h 98% 1.0 mm
02:28 3.1 °C 3.0 °C 990.1 hPa Calm   10.5 km/h 98% 1.0 mm
02:33 3.1 °C 3.0 °C 990.1 hPa South 1.4 km/h 10.5 km/h 98% 1.3 mm
02:38 3.3 °C 3.0 °C 990.1 hPa Calm   8.7 km/h 98% 1.3 mm
02:43 3.3 °C 3.0 °C 990.1 hPa SSW 3.2 km/h 5.5 km/h 98% 1.5 mm
02:48 3.3 °C 3.0 °C 990.1 hPa SSW 1.4 km/h 5.8 km/h 98% 1.3 mm
02:53 3.3 °C 3.0 °C 990.1 hPa Calm   6.1 km/h 98% 1.3 mm
02:58 3.3 °C 3.0 °C 990.1 hPa Calm   6.1 km/h 98% 1.3 mm
03:03 3.3 °C 3.0 °C 990.1 hPa Calm   4.7 km/h 98% 1.3 mm
03:08 3.3 °C 3.0 °C 990.1 hPa SSW 5.8 km/h 5.8 km/h 98% 1.3 mm
03:09 3.3 °C 3.0 °C 990.1 hPa South 4.0 km/h 5.8 km/h 98% 1.3 mm
03:14 3.3 °C 3.0 °C 990.1 hPa SSW 4.0 km/h 6.1 km/h 98% 0.8 mm
03:19 3.3 °C 3.0 °C 990.1 hPa WSW 6.9 km/h 7.6 km/h 98% 0.8 mm
03:24 3.3 °C 3.0 °C 990.1 hPa SSW 4.3 km/h 10.1 km/h 98% 0.5 mm
03:29 3.3 °C 3.0 °C 991.1 hPa Calm   10.1 km/h 98% 0.5 mm
03:34 3.2 °C 3.0 °C 991.1 hPa SW 8.7 km/h 9.7 km/h 98% 0.3 mm
03:39 3.2 °C 3.0 °C 991.1 hPa SW 5.5 km/h 10.1 km/h 98% 0.3 mm
03:44 3.3 °C 3.0 °C 990.1 hPa SSW 6.4 km/h 10.1 km/h 98% 0.0 mm
03:49 3.3 °C 3.0 °C 990.1 hPa SSW 10.5 km/h 10.5 km/h 98% 0.0 mm
03:54 3.3 °C 3.0 °C 990.1 hPa WSW 5.8 km/h 10.5 km/h 98% 0.0 mm
03:59 3.4 °C 3.0 °C 991.1 hPa SW 9.0 km/h 10.5 km/h 98% 0.0 mm
04:04 3.4 °C 3.0 °C 991.1 hPa WSW 8.7 km/h 10.5 km/h 98% 0.0 mm
04:09 3.4 °C 3.0 °C 991.1 hPa SW 7.2 km/h 10.1 km/h 98% 0.0 mm
04:14 3.4 °C 3.0 °C 991.1 hPa SSW 5.8 km/h 10.1 km/h 98% 0.0 mm
04:19 3.5 °C 4.0 °C 991.1 hPa SW 1.4 km/h 9.7 km/h 98% 0.0 mm
04:25 3.5 °C 4.0 °C 991.1 hPa SW 5.0 km/h 9.0 km/h 98% 0.0 mm
04:30 3.6 °C 4.0 °C 990.1 hPa SW 6.1 km/h 9.0 km/h 98% 0.0 mm
04:35 3.6 °C 4.0 °C 990.1 hPa WSW 8.7 km/h 10.1 km/h 98% 0.0 mm
04:40 3.6 °C 4.0 °C 990.1 hPa SW 7.9 km/h 10.1 km/h 98% 0.0 mm
04:45 3.5 °C 4.0 °C 991.1 hPa SW 6.9 km/h 11.9 km/h 98% 0.0 mm
04:50 3.5 °C 4.0 °C 991.1 hPa WSW 6.9 km/h 11.9 km/h 98% 0.0 mm
04:55 3.5 °C 4.0 °C 991.1 hPa WSW 7.6 km/h 10.5 km/h 98% 0.0 mm
05:00 3.5 °C 4.0 °C 991.1 hPa SW 9.0 km/h 13.0 km/h 98% 0.0 mm
05:05 3.5 °C 4.0 °C 991.1 hPa SW 7.6 km/h 13.0 km/h 98% 0.0 mm
05:10 3.6 °C 4.0 °C 991.1 hPa Calm   9.0 km/h 98% 0.0 mm
05:15 3.6 °C 4.0 °C 991.1 hPa WSW 7.6 km/h 10.1 km/h 98% 0.0 mm
05:20 3.5 °C 4.0 °C 991.1 hPa SSW 6.4 km/h 10.1 km/h 98% 0.0 mm
05:26 3.5 °C 4.0 °C 991.1 hPa SSW 10.1 km/h 10.1 km/h 98% 0.0 mm
05:31 3.5 °C 4.0 °C 991.1 hPa Calm   10.1 km/h 98% 0.0 mm
05:36 3.4 °C 3.0 °C 991.1 hPa SSW 5.5 km/h 10.1 km/h 98% 0.0 mm
05:41 3.5 °C 4.0 °C 991.1 hPa SSW 8.7 km/h 8.7 km/h 98% 0.0 mm
05:46 3.4 °C 3.0 °C 991.1 hPa WSW 6.9 km/h 8.7 km/h 98% 0.0 mm
05:47 3.4 °C 3.0 °C 991.1 hPa WSW 6.9 km/h 8.7 km/h 98% 0.0 mm
05:52 3.4 °C 3.0 °C 991.1 hPa WSW 6.9 km/h 7.9 km/h 98% 0.0 mm
05:54 3.4 °C 3.0 °C 991.1 hPa Calm   8.7 km/h 98% 0.0 mm
06:00 3.4 °C 3.0 °C 991.1 hPa Calm   8.7 km/h 98% 0.0 mm
06:05 3.3 °C 3.0 °C 991.1 hPa SW 4.3 km/h 7.9 km/h 98% 0.0 mm
06:10 3.3 °C 3.0 °C 991.1 hPa SW 4.7 km/h 7.9 km/h 98% 0.0 mm
06:16 3.3 °C 3.0 °C 991.1 hPa Calm   5.8 km/h 98% 0.0 mm
06:21 3.2 °C 3.0 °C 991.1 hPa Calm   5.0 km/h 98% 0.0 mm
06:26 3.2 °C 3.0 °C 991.1 hPa WSW 5.8 km/h 7.2 km/h 98% 0.0 mm
06:31 3.1 °C 3.0 °C 991.1 hPa Calm   7.9 km/h 98% 0.0 mm
06:36 3.0 °C 3.0 °C 991.1 hPa Calm   7.9 km/h 98% 0.0 mm
06:41 2.7 °C 3.0 °C 991.1 hPa SW 4.7 km/h 6.4 km/h 98% 0.0 mm
06:46 2.6 °C 3.0 °C 991.1 hPa Calm   6.4 km/h 98% 0.0 mm
06:51 2.4 °C 3.0 °C 991.1 hPa Calm   4.0 km/h 98% 0.0 mm
06:56 2.2 °C 2.0 °C 991.1 hPa Calm     98% 0.0 mm
07:01 2.0 °C 2.0 °C 991.1 hPa Calm     98% 0.0 mm
07:06 1.9 °C 2.0 °C 991.1 hPa Calm   1.8 km/h 98% 0.0 mm
07:12 1.8 °C 2.0 °C 991.1 hPa Calm   1.8 km/h 98% 0.0 mm
07:17 1.8 °C 2.0 °C 991.1 hPa Calm   4.3 km/h 98% 0.0 mm
07:22 1.7 °C 2.0 °C 991.1 hPa Calm   4.3 km/h 98% 0.0 mm
07:27 1.7 °C 2.0 °C 991.1 hPa Calm   4.0 km/h 98% 0.0 mm
07:32 1.6 °C 2.0 °C 991.1 hPa Calm   4.0 km/h 98% 0.0 mm
07:37 1.6 °C 2.0 °C 991.1 hPa SSW 4.7 km/h 6.1 km/h 98% 0.0 mm
07:42 1.7 °C 2.0 °C 991.1 hPa Calm   6.1 km/h 98% 0.0 mm
07:47 1.8 °C 2.0 °C 991.1 hPa SSE 4.7 km/h 5.5 km/h 98% 0.0 mm
07:52 1.8 °C 2.0 °C 991.1 hPa SSW 1.8 km/h 5.5 km/h 98% 0.0 mm
07:57 1.9 °C 2.0 °C 990.1 hPa South 5.0 km/h 5.8 km/h 98% 0.0 mm
08:02 1.8 °C 2.0 °C 990.1 hPa South 4.7 km/h 7.9 km/h 98% 0.0 mm
08:07 1.5 °C 2.0 °C 990.1 hPa SSE 6.1 km/h 7.9 km/h 98% 0.0 mm
08:12 1.4 °C 1.0 °C 991.1 hPa Calm   6.1 km/h 98% 0.0 mm
08:17 1.4 °C 1.0 °C 991.1 hPa Calm   5.0 km/h 98% 0.0 mm
08:22 1.3 °C 1.0 °C 991.1 hPa Calm   4.0 km/h 98% 0.0 mm
08:27 1.2 °C 1.0 °C 991.1 hPa South 5.5 km/h 5.5 km/h 98% 0.0 mm
08:32 1.2 °C 1.0 °C 991.1 hPa Calm   5.5 km/h 98% 0.0 mm
08:37 1.2 °C 1.0 °C 991.1 hPa SSW 4.3 km/h 5.5 km/h 98% 0.0 mm
08:42 1.1 °C 1.0 °C 991.1 hPa SSW 1.4 km/h 5.5 km/h 98% 0.0 mm
08:47 1.0 °C 1.0 °C 991.1 hPa Calm   4.7 km/h 98% 0.0 mm
08:50 1.0 °C 1.0 °C 991.1 hPa Calm   5.0 km/h 98% 0.0 mm
08:55 1.1 °C 1.0 °C 991.1 hPa SW 2.1 km/h 6.1 km/h 98% 0.0 mm
09:00 1.3 °C 1.0 °C 991.1 hPa Calm   6.1 km/h 98% 0.0 mm
09:05 1.4 °C 1.0 °C 991.1 hPa Calm   5.8 km/h 98% 0.0 mm
09:10 1.4 °C 1.0 °C 991.1 hPa Calm   4.0 km/h 98% 0.0 mm
09:15 1.4 °C 1.0 °C 992.1 hPa Calm     98% 0.0 mm
09:20 1.2 °C 1.0 °C 992.1 hPa WSW 1.4 km/h 1.4 km/h 98% 0.0 mm
09:25 1.1 °C 1.0 °C 992.1 hPa Calm   1.4 km/h 98% 0.0 mm
09:30 1.1 °C 1.0 °C 992.1 hPa Calm   1.4 km/h 98% 0.0 mm
09:35 1.1 °C 1.0 °C 992.1 hPa Calm   5.0 km/h 98% 0.0 mm
09:40 1.1 °C 1.0 °C 992.1 hPa Calm   5.0 km/h 98% 0.0 mm
09:46 1.1 °C 1.0 °C 992.1 hPa SW 4.0 km/h 4.3 km/h 98% 0.0 mm
09:51 1.1 °C 1.0 °C 992.1 hPa Calm   4.7 km/h 98% 0.0 mm
09:56 1.1 °C 1.0 °C 993.1 hPa Calm   4.7 km/h 98% 0.0 mm
10:01 1.1 °C 1.0 °C 993.1 hPa SW 6.1 km/h 6.1 km/h 98% 0.0 mm
10:06 1.1 °C 1.0 °C 993.1 hPa Calm   6.1 km/h 98% 0.0 mm
10:11 1.1 °C 1.0 °C 993.1 hPa Calm   5.8 km/h 98% 0.0 mm
10:16 1.1 °C 1.0 °C 993.1 hPa West 1.4 km/h 5.8 km/h 98% 0.0 mm
10:21 1.1 °C 1.0 °C 993.1 hPa Calm   5.8 km/h 98% 0.0 mm
10:26 1.1 °C 1.0 °C 993.1 hPa Calm   5.0 km/h 98% 0.0 mm
10:32 1.1 °C 1.0 °C 993.1 hPa SW 4.3 km/h 4.3 km/h 98% 0.0 mm
10:37 1.1 °C 1.0 °C 993.1 hPa Calm   7.6 km/h 98% 0.0 mm
10:42 1.1 °C 1.0 °C 993.1 hPa SSW 5.8 km/h 7.6 km/h 98% 0.0 mm
10:47 1.1 °C 1.0 °C 993.1 hPa Calm   7.6 km/h 98% 0.0 mm
10:52 1.1 °C 1.0 °C 993.1 hPa Calm   6.9 km/h 98% 0.0 mm
10:57 1.1 °C 1.0 °C 993.1 hPa WSW 2.6 km/h 2.6 km/h 98% 0.0 mm
11:02 1.1 °C 1.0 °C 993.1 hPa Calm   5.0 km/h 98% 0.0 mm
11:07 1.1 °C 1.0 °C 993.1 hPa Calm   5.0 km/h 98% 0.0 mm
11:12 1.1 °C 1.0 °C 993.1 hPa Calm     98% 0.0 mm
11:17 1.1 °C 1.0 °C 993.1 hPa SW 8.7 km/h 10.1 km/h 98% 0.0 mm
11:22 1.1 °C 1.0 °C 993.1 hPa SW 5.5 km/h 10.1 km/h 98% 0.0 mm
11:27 1.1 °C 1.0 °C 993.1 hPa Calm   8.7 km/h 98% 0.0 mm
11:32 1.1 °C 1.0 °C 993.1 hPa Calm   8.7 km/h 98% 0.0 mm
11:37 1.1 °C 1.0 °C 993.1 hPa SW 4.0 km/h 6.1 km/h 98% 0.0 mm
11:42 1.1 °C 1.0 °C 993.1 hPa Calm   9.0 km/h 98% 0.0 mm
11:47 1.1 °C 1.0 °C 993.1 hPa SSW 5.5 km/h 9.0 km/h 98% 0.0 mm
11:52 1.1 °C 1.0 °C 993.1 hPa SW 7.9 km/h 9.3 km/h 98% 0.0 mm
11:57 1.1 °C 1.0 °C 993.1 hPa WSW 6.1 km/h 9.3 km/h 98% 0.0 mm
12:02 1.1 °C 1.0 °C 993.1 hPa SW 7.9 km/h 10.8 km/h 98% 0.0 mm
12:08 1.1 °C 1.0 °C 993.1 hPa WSW 6.9 km/h 10.8 km/h 98% 0.0 mm
12:13 1.1 °C 1.0 °C 993.1 hPa WSW 6.9 km/h 10.8 km/h 98% 0.0 mm
12:18 1.1 °C 1.0 °C 993.1 hPa West 10.1 km/h 10.8 km/h 98% 0.0 mm
12:23 1.1 °C 1.0 °C 993.1 hPa West 9.0 km/h 10.5 km/h 98% 0.0 mm
12:28 1.1 °C 1.0 °C 993.1 hPa Calm   9.0 km/h 98% 0.0 mm
12:33 1.1 °C 1.0 °C 993.1 hPa Calm   7.6 km/h 98% 0.0 mm
12:36 1.1 °C 1.0 °C 993.1 hPa WSW 10.8 km/h 10.8 km/h 98% 0.0 mm
12:41 1.1 °C 1.0 °C 993.1 hPa WSW 9.0 km/h 14.8 km/h 98% 0.0 mm
12:46 1.1 °C 1.0 °C 993.1 hPa West 5.8 km/h 14.8 km/h 98% 0.0 mm
12:51 1.1 °C 1.0 °C 993.1 hPa NNW 4.0 km/h 9.3 km/h 98% 0.0 mm
12:56 1.1 °C 1.0 °C 994.1 hPa WSW 10.1 km/h 11.1 km/h 98% 0.0 mm
13:01 1.1 °C 1.0 °C 994.1 hPa West 6.9 km/h 11.6 km/h 98% 0.0 mm
13:06 1.1 °C 1.0 °C 994.1 hPa WSW 4.7 km/h 11.6 km/h 98% 0.0 mm
13:11 1.1 °C 1.0 °C 994.1 hPa SW 9.7 km/h 10.1 km/h 98% 0.0 mm
13:16 1.1 °C 1.0 °C 994.1 hPa West 9.0 km/h 10.8 km/h 98% 0.0 mm
13:21 1.1 °C 1.0 °C 994.1 hPa WSW 4.3 km/h 10.8 km/h 98% 0.0 mm
13:22 1.1 °C 1.0 °C 994.1 hPa Calm   10.8 km/h 98% 0.0 mm
13:27 1.1 °C 1.0 °C 994.1 hPa Calm   8.7 km/h 98% 0.0 mm
13:32 1.1 °C 1.0 °C 994.1 hPa WSW 6.1 km/h 6.1 km/h 98% 0.0 mm
13:37 1.1 °C 1.0 °C 994.1 hPa WSW 4.0 km/h 6.9 km/h 98% 0.0 mm
13:43 1.1 °C 1.0 °C 994.1 hPa West 6.9 km/h 9.7 km/h 98% 0.0 mm
13:48 1.1 °C 1.0 °C 994.1 hPa West 3.5 km/h 9.7 km/h 98% 0.0 mm
13:53 1.1 °C 1.0 °C 994.1 hPa Calm   11.6 km/h 98% 0.0 mm
13:58 1.1 °C 1.0 °C 994.1 hPa Calm   11.6 km/h 98% 0.0 mm
14:03 1.1 °C 1.0 °C 994.1 hPa Calm   8.7 km/h 98% 0.0 mm
14:08 1.1 °C 1.0 °C 994.1 hPa Calm     98% 0.3 mm
14:13 1.1 °C 1.0 °C 994.1 hPa Calm   5.8 km/h 98% 0.3 mm
14:18 1.1 °C 1.0 °C 994.1 hPa West 5.8 km/h 7.2 km/h 98% 0.3 mm
14:23 1.1 °C 1.0 °C 994.1 hPa Calm   9.7 km/h 98% 0.3 mm
14:28 1.1 °C 1.0 °C 994.1 hPa West 5.5 km/h 9.7 km/h 98% 0.3 mm
14:33 5.0 °C 5.0 °C 994.1 hPa West 1.4 km/h 9.3 km/h 98% 0.3 mm
14:38 5.0 °C 5.0 °C 994.1 hPa Calm   9.3 km/h 98% 0.3 mm
14:43 5.0 °C 5.0 °C 994.1 hPa West 5.5 km/h 8.7 km/h 98% 0.3 mm
14:48 5.0 °C 5.0 °C 994.1 hPa West 7.9 km/h 9.7 km/h 98% 0.3 mm
14:53 5.0 °C 5.0 °C 994.1 hPa West 9.7 km/h 9.7 km/h 98% 0.3 mm
14:58 5.0 °C 5.0 °C 994.1 hPa Calm   11.6 km/h 98% 0.3 mm
15:03 5.0 °C 5.0 °C 994.1 hPa Calm   9.3 km/h 98% 0.3 mm
15:08 5.0 °C 5.0 °C 994.1 hPa Calm   7.9 km/h 98% 0.0 mm
15:12 5.0 °C 5.0 °C 995.1 hPa Calm   6.4 km/h 98% 0.0 mm
15:17 5.0 °C 5.0 °C 995.1 hPa Calm   6.4 km/h 98% 0.0 mm
15:22 5.0 °C 5.0 °C 995.1 hPa Calm   5.0 km/h 98% 0.0 mm
15:27 5.0 °C 5.0 °C 995.1 hPa Calm   5.0 km/h 98% 0.0 mm
15:32 5.0 °C 5.0 °C 995.1 hPa Calm   4.7 km/h 98% 0.0 mm
15:37 4.9 °C 5.0 °C 995.1 hPa Calm   2.6 km/h 98% 0.0 mm
15:42 4.9 °C 5.0 °C 995.1 hPa Calm   5.8 km/h 98% 0.0 mm
15:47 4.9 °C 5.0 °C 995.1 hPa Calm   5.8 km/h 98% 0.0 mm
15:52 5.0 °C 5.0 °C 995.1 hPa West 6.1 km/h 6.1 km/h 98% 0.0 mm
15:57 5.0 °C 5.0 °C 995.1 hPa WSW 10.1 km/h 13.0 km/h 98% 0.0 mm
16:02 4.8 °C 5.0 °C 995.1 hPa WNW 6.1 km/h 14.0 km/h 98% 0.0 mm
16:07 4.8 °C 5.0 °C 995.1 hPa Calm   14.0 km/h 98% 0.0 mm
16:12 4.8 °C 5.0 °C 995.1 hPa West 6.4 km/h 8.7 km/h 98% 0.0 mm
16:17 4.7 °C 5.0 °C 995.1 hPa Calm   8.7 km/h 98% 0.0 mm
16:22 4.7 °C 5.0 °C 995.1 hPa Calm   7.9 km/h 98% 0.0 mm
16:27 4.6 °C 5.0 °C 995.1 hPa West 10.5 km/h 10.5 km/h 98% 0.0 mm
16:32 4.6 °C 5.0 °C 995.1 hPa WSW 2.1 km/h 10.5 km/h 98% 0.0 mm
16:37 4.6 °C 5.0 °C 995.1 hPa WSW 7.9 km/h 8.7 km/h 98% 0.0 mm
16:42 4.3 °C 4.0 °C 996.2 hPa Calm   9.0 km/h 98% 0.0 mm
16:47 4.3 °C 4.0 °C 996.2 hPa West 6.1 km/h 14.0 km/h 98% 0.0 mm
16:48 4.3 °C 4.0 °C 996.2 hPa Calm   14.0 km/h 98% 0.0 mm
16:53 4.3 °C 4.0 °C 996.2 hPa Calm   14.0 km/h 98% 0.0 mm
16:58 4.2 °C 4.0 °C 996.2 hPa SW 5.0 km/h 12.6 km/h 98% 0.0 mm
17:03 4.4 °C 4.0 °C 996.2 hPa WNW 5.8 km/h 12.6 km/h 98% 0.0 mm
17:09 4.5 °C 5.0 °C 996.2 hPa WNW 9.7 km/h 15.1 km/h 98% 0.3 mm
17:14 4.7 °C 5.0 °C 996.8 hPa Calm   15.1 km/h 98% 0.3 mm
17:19 4.8 °C 5.0 °C 996.8 hPa Calm   14.0 km/h 98% 0.3 mm
17:24 4.8 °C 5.0 °C 996.8 hPa Calm   14.0 km/h 98% 0.3 mm
17:29 4.8 °C 5.0 °C 996.8 hPa Calm   10.1 km/h 98% 0.3 mm
17:34 4.8 °C 5.0 °C 996.8 hPa WSW 5.0 km/h 5.5 km/h 98% 0.3 mm
17:39 4.7 °C 5.0 °C 996.8 hPa West 4.0 km/h 5.5 km/h 98% 0.3 mm
17:44 4.8 °C 5.0 °C 996.8 hPa West 4.7 km/h 6.1 km/h 98% 0.3 mm
17:49 4.7 °C 5.0 °C 996.8 hPa Calm   6.1 km/h 98% 0.5 mm
17:54 4.7 °C 5.0 °C 996.8 hPa Calm   6.1 km/h 98% 0.5 mm
17:59 4.6 °C 5.0 °C 996.8 hPa Calm   5.0 km/h 98% 0.5 mm
18:04 4.5 °C 5.0 °C 996.8 hPa Calm   5.0 km/h 98% 0.3 mm
18:09 4.4 °C 4.0 °C 996.8 hPa Calm   6.4 km/h 98% 0.3 mm
18:14 4.3 °C 4.0 °C 996.8 hPa Calm   6.4 km/h 98% 0.3 mm
18:19 4.1 °C 4.0 °C 996.8 hPa West 2.1 km/h 6.1 km/h 98% 0.3 mm
18:24 4.0 °C 4.0 °C 996.8 hPa Calm   5.5 km/h 98% 0.3 mm
18:30 4.0 °C 4.0 °C 996.8 hPa Calm   6.9 km/h 98% 0.3 mm
18:35 4.0 °C 4.0 °C 996.8 hPa Calm   6.9 km/h 98% 0.3 mm
18:40 4.3 °C 4.0 °C 996.8 hPa West 5.5 km/h 5.8 km/h 98% 0.3 mm
18:45 4.4 °C 4.0 °C 997.9 hPa Calm   5.8 km/h 98% 0.3 mm
18:50 4.5 °C 5.0 °C 997.9 hPa Calm   7.9 km/h 98% 0.0 mm
18:55 4.6 °C 5.0 °C 997.9 hPa Calm   7.9 km/h 98% 0.0 mm
19:00 4.6 °C 5.0 °C 997.9 hPa Calm   6.9 km/h 98% 0.0 mm
19:05 4.6 °C 5.0 °C 997.9 hPa Calm   7.9 km/h 98% 0.0 mm
19:10 4.7 °C 5.0 °C 997.9 hPa North 3.5 km/h 7.9 km/h 98% 0.0 mm
19:15 4.7 °C 5.0 °C 997.9 hPa North 6.1 km/h 9.3 km/h 98% 0.0 mm
19:20 4.7 °C 5.0 °C 997.9 hPa North 9.3 km/h 13.7 km/h 98% 0.0 mm
19:25 4.7 °C 5.0 °C 998.9 hPa North 5.0 km/h 16.6 km/h 98% 0.0 mm
19:31 4.8 °C 5.0 °C 998.9 hPa North 6.9 km/h 16.6 km/h 98% 0.0 mm
19:36 4.8 °C 5.0 °C 998.9 hPa Calm   11.9 km/h 98% 0.0 mm
19:41 4.8 °C 5.0 °C 998.9 hPa Calm   9.7 km/h 98% 0.0 mm
19:46 4.7 °C 5.0 °C 998.9 hPa NW 1.8 km/h 11.9 km/h 98% 0.0 mm
19:51 4.7 °C 5.0 °C 998.9 hPa NNW 5.5 km/h 11.9 km/h 98% 0.0 mm
19:56 4.7 °C 5.0 °C 998.9 hPa North 9.0 km/h 11.6 km/h 98% 0.0 mm
20:01 4.5 °C 5.0 °C 998.9 hPa North 4.3 km/h 11.6 km/h 98% 0.0 mm
20:06 4.4 °C 4.0 °C 998.9 hPa Calm   10.5 km/h 98% 0.0 mm
20:11 4.4 °C 4.0 °C 998.9 hPa North 5.0 km/h 10.5 km/h 98% 0.0 mm
20:16 4.4 °C 4.0 °C 998.9 hPa NNE 1.4 km/h 11.6 km/h 98% 0.0 mm
20:21 4.4 °C 4.0 °C 998.9 hPa NNW 10.1 km/h 13.0 km/h 98% 0.0 mm
20:26 4.4 °C 4.0 °C 999.9 hPa North 9.7 km/h 14.8 km/h 98% 0.0 mm
20:31 4.4 °C 4.0 °C 999.9 hPa North 10.1 km/h 14.8 km/h 98% 0.0 mm
20:37 4.4 °C 4.0 °C 999.9 hPa NNW 5.5 km/h 13.0 km/h 98% 0.0 mm
20:42 4.3 °C 4.0 °C 1000.9 hPa NNW 8.7 km/h 15.1 km/h 98% 0.0 mm
20:47 4.2 °C 4.0 °C 1000.9 hPa Calm   15.1 km/h 98% 0.0 mm
20:52 4.1 °C 4.0 °C 1000.9 hPa North 8.7 km/h 10.1 km/h 98% 0.0 mm
20:57 4.0 °C 4.0 °C 999.9 hPa Calm   10.1 km/h 98% 0.0 mm
21:02 4.0 °C 4.0 °C 999.9 hPa NNW 6.9 km/h 10.1 km/h 98% 0.0 mm
21:07 4.0 °C 4.0 °C 999.9 hPa NNW 5.0 km/h 13.7 km/h 98% 0.0 mm
21:12 4.0 °C 4.0 °C 1000.9 hPa NNW 10.1 km/h 13.7 km/h 98% 0.0 mm
21:17 4.0 °C 4.0 °C 1000.9 hPa NNE 10.1 km/h 13.0 km/h 98% 0.0 mm
21:22 4.0 °C 4.0 °C 1000.9 hPa NW 1.8 km/h 10.1 km/h 98% 0.0 mm
21:27 4.0 °C 4.0 °C 1000.9 hPa NNW 9.3 km/h 10.5 km/h 98% 0.0 mm
21:33 4.0 °C 4.0 °C 1000.9 hPa NNE 8.7 km/h 10.5 km/h 98% 0.0 mm
21:38 4.0 °C 4.0 °C 1000.9 hPa North 5.0 km/h 9.3 km/h 98% 0.0 mm
21:43 4.0 °C 4.0 °C 1001.9 hPa NNW 5.5 km/h 9.0 km/h 98% 0.0 mm
21:49 4.0 °C 4.0 °C 1001.9 hPa Calm   6.4 km/h 98% 0.0 mm
21:54 4.0 °C 4.0 °C 1001.9 hPa Calm   8.7 km/h 98% 0.0 mm
21:59 4.0 °C 4.0 °C 1001.9 hPa Calm   8.7 km/h 98% 0.0 mm
22:04 4.0 °C 4.0 °C 1001.9 hPa Calm   7.6 km/h 98% 0.0 mm
22:09 4.0 °C 4.0 °C 1001.9 hPa North 3.5 km/h 3.5 km/h 98% 0.0 mm
22:14 4.0 °C 4.0 °C 1001.9 hPa Calm   3.5 km/h 98% 0.0 mm
22:19 4.0 °C 4.0 °C 1001.9 hPa Calm     98% 0.0 mm
22:24 4.0 °C 4.0 °C 1001.9 hPa Calm     98% 0.0 mm
22:29 3.2 °C 3.0 °C 1002.9 hPa Calm     98% 0.0 mm
22:35 3.2 °C 3.0 °C 1002.9 hPa Calm   2.6 km/h 98% 0.0 mm
22:40 3.2 °C 3.0 °C 1002.9 hPa North 3.5 km/h 4.0 km/h 98% 0.0 mm
22:45 3.2 °C 3.0 °C 1002.9 hPa NNW 3.5 km/h 4.0 km/h 98% 0.0 mm
22:50 3.2 °C 3.0 °C 1002.9 hPa Calm   3.5 km/h 98% 0.0 mm
22:55 3.2 °C 3.0 °C 1002.9 hPa Calm     98% 0.0 mm
23:00 3.2 °C 3.0 °C 1002.9 hPa Calm     98% 0.0 mm
23:05 3.2 °C 3.0 °C 1002.9 hPa Calm     98% 0.0 mm
23:10 3.2 °C 3.0 °C 1002.9 hPa Calm   4.3 km/h 98% 0.0 mm
23:13 3.2 °C 3.0 °C 1002.9 hPa Calm   4.3 km/h 98% 0.0 mm
23:18 3.2 °C 3.0 °C 1002.9 hPa Calm   4.3 km/h 98% 0.0 mm
23:23 3.2 °C 3.0 °C 1002.9 hPa North 4.7 km/h 4.7 km/h 98% 0.0 mm
23:29 3.2 °C 3.0 °C 1002.9 hPa Calm   4.7 km/h 98% 0.0 mm
23:33 3.2 °C 3.0 °C 1002.9 hPa Calm   4.7 km/h 98% 0.0 mm
23:38 3.2 °C 3.0 °C 1002.9 hPa Calm   1.4 km/h 98% 0.0 mm
23:43 3.2 °C 3.0 °C 1003.9 hPa Calm   8.7 km/h 98% 0.0 mm
23:48 3.2 °C 3.0 °C 1003.9 hPa Calm   8.7 km/h 98% 0.0 mm
23:49 3.2 °C 3.0 °C 1003.9 hPa Calm   8.7 km/h 98% 0.0 mm
23:54 3.2 °C 3.0 °C 1003.9 hPa WNW 4.3 km/h 5.8 km/h 98% 0.0 mm
23:59 3.2 °C 3.0 °C 1003.9 hPa Calm   5.5 km/h 98% 0.0 mm
Données Historique de Météo Turbie

Mise a jour : 24/05/2018 15:26:13
Généré par Cumulus 1.9.4 (1099)